• In Portugal
  • List of Countries
  • For 7 days
  • Water Temperature
  • Satellite Maps
  • Weather Map
  • Weather Widgets
  • user-avatar
    Login

    Hourly Weather Soroki

    Today, 23 October, Monday

    Time Temperature Precipitation Wind Pressure Humidity
    00:00 +5°C° 0 mm 4 mps 750 mmHg 74%
    01:00 +5°C° 0 mm 4 mps 750 mmHg 74%
    02:00 +4°C° 0 mm 4 mps 749 mmHg 74%
    03:00 +4°C° 0 mm 4 mps 749 mmHg 75%
    04:00 +4°C° 0 mm 4 mps 749 mmHg 76%
    05:00 +3°C° 0 mm 5 mps 748 mmHg 76%
    06:00 +3°C° 0 mm 5 mps 748 mmHg 76%
    07:00 +3°C° 0 mm 5 mps 748 mmHg 76%
    08:00 +4°C° 0 mm 6 mps 748 mmHg 76%
    09:00 +5°C° 0 mm 6 mps 747 mmHg 74%
    10:00 +5°C° 0 mm 6 mps 747 mmHg 71%
    11:00 +7°C° 0 mm 6 mps 747 mmHg 69%
    12:00 +8°C° 0 mm 6 mps 747 mmHg 68%
    13:00 +8°C° 0 mm 6 mps 746 mmHg 66%
    14:00 +9°C° 0 mm 6 mps 746 mmHg 65%
    15:00 +9°C° 0.2 mm 6 mps 746 mmHg 67%
    16:00 +9°C° 0.2 mm 6 mps 746 mmHg 69%
    17:00 +8°C° 0.2 mm 6 mps 746 mmHg 71%
    18:00 +8°C° 0.5 mm 6 mps 746 mmHg 74%
    19:00 +8°C° 0.5 mm 6 mps 746 mmHg 77%
    20:00 +8°C° 0.5 mm 6 mps 746 mmHg 79%
    21:00 +7°C° 0.6 mm 6 mps 746 mmHg 80%
    22:00 +6°C° 0.6 mm 7 mps 746 mmHg 80%
    23:00 +6°C° 0.6 mm 7 mps 746 mmHg 80%

    Tomorrow, 24 October, Tuesday

    Time Temperature Precipitation Wind Pressure Humidity
    00:00 +7°C° 1.2 mm 6 mps 746 mmHg 82%
    01:00 +5°C° 1.2 mm 6 mps 747 mmHg 83%
    02:00 +5°C° 1.2 mm 6 mps 747 mmHg 84%
    03:00 +5°C° 1.4 mm 6 mps 747 mmHg 84%
    04:00 +5°C° 1.4 mm 6 mps 747 mmHg 84%
    05:00 +5°C° 1.4 mm 6 mps 748 mmHg 84%
    06:00 +4°C° 1 mm 6 mps 748 mmHg 83%
    07:00 +4°C° 1 mm 6 mps 749 mmHg 81%
    08:00 +4°C° 1 mm 6 mps 749 mmHg 80%
    09:00 +4°C° 0.4 mm 6 mps 750 mmHg 78%
    10:00 +4°C° 0.4 mm 6 mps 750 mmHg 76%
    11:00 +5°C° 0.4 mm 6 mps 751 mmHg 75%
    12:00 +5°C° 0.1 mm 6 mps 751 mmHg 73%
    13:00 +7°C° 0.1 mm 6 mps 752 mmHg 71%
    14:00 +7°C° 0.1 mm 6 mps 752 mmHg 70%
    15:00 +7°C° 0 mm 5 mps 752 mmHg 69%
    16:00 +6°C° 0 mm 5 mps 753 mmHg 69%
    17:00 +6°C° 0 mm 5 mps 753 mmHg 69%
    18:00 +6°C° 0 mm 5 mps 754 mmHg 69%
    19:00 +6°C° 0 mm 5 mps 754 mmHg 69%
    20:00 +5°C° 0 mm 5 mps 755 mmHg 68%
    21:00 +5°C° 0 mm 5 mps 755 mmHg 69%
    22:00 +5°C° 0 mm 4 mps 755 mmHg 69%
    23:00 +5°C° 0 mm 4 mps 755 mmHg 70%

    Day after tomorrow, 25 October, Wednesday

    Time Temperature Precipitation Wind Pressure Humidity
    00:00 +4°C° 0 mm 4 mps 756 mmHg 72%
    01:00 +4°C° 0 mm 4 mps 756 mmHg 73%
    02:00 +4°C° 0 mm 4 mps 756 mmHg 75%
    03:00 +3°C° 0 mm 4 mps 756 mmHg 76%
    04:00 +3°C° 0 mm 4 mps 756 mmHg 77%
    05:00 +1°C° 0 mm 4 mps 756 mmHg 78%
    06:00 +3°C° 0 mm 4 mps 757 mmHg 77%
    07:00 +3°C° 0 mm 4 mps 757 mmHg 75%
    08:00 +2°C° 0 mm 5 mps 758 mmHg 73%
    09:00 +4°C° 0 mm 4 mps 758 mmHg 68%
    10:00 +5°C° 0 mm 4 mps 758 mmHg 62%
    11:00 +6°C° 0 mm 4 mps 758 mmHg 57%
    12:00 +7°C° 0 mm 4 mps 758 mmHg 54%
    13:00 +9°C° 0 mm 3 mps 758 mmHg 51%
    14:00 +9°C° 0 mm 3 mps 757 mmHg 48%
    15:00 +9°C° 0 mm 3 mps 757 mmHg 51%
    16:00 +8°C° 0 mm 3 mps 757 mmHg 53%
    17:00 +7°C° 0 mm 2 mps 757 mmHg 56%
    18:00 +7°C° 0 mm 2 mps 758 mmHg 58%
    19:00 +6°C° 0 mm 2 mps 758 mmHg 60%
    20:00 +5°C° 0 mm 2 mps 758 mmHg 62%
    21:00 +5°C° 0 mm 2 mps 758 mmHg 62%
    22:00 +4°C° 0 mm 2 mps 758 mmHg 63%
    23:00 +5°C° 0 mm 1 mps 758 mmHg 64%

    26 October, Thursday

    Time Temperature Precipitation Wind Pressure Humidity
    00:00 +5°C° 0 mm 1 mps 758 mmHg 65%
    01:00 +5°C° 0 mm 1 mps 758 mmHg 65%
    02:00 +5°C° 0 mm 1 mps 758 mmHg 65%
    03:00 +5°C° 0 mm 1 mps 757 mmHg 66%
    04:00 +5°C° 0 mm 1 mps 757 mmHg 66%
    05:00 +3°C° 0 mm 2 mps 757 mmHg 66%
    06:00 +4°C° 0 mm 2 mps 757 mmHg 65%
    07:00 +4°C° 0 mm 2 mps 757 mmHg 64%
    08:00 +4°C° 0 mm 3 mps 757 mmHg 63%
    09:00 +5°C° 0 mm 3 mps 756 mmHg 62%
    10:00 +5°C° 0 mm 3 mps 756 mmHg 60%
    11:00 +6°C° 0 mm 4 mps 756 mmHg 59%
    12:00 +7°C° 0 mm 4 mps 755 mmHg 58%
    13:00 +10°C° 0 mm 4 mps 755 mmHg 57%
    14:00 +11°C° 0 mm 4 mps 754 mmHg 56%
    15:00 +11°C° 0 mm 3 mps 754 mmHg 59%
    16:00 +11°C° 0 mm 3 mps 753 mmHg 62%
    17:00 +10°C° 0 mm 2 mps 753 mmHg 65%
    18:00 +10°C° 0 mm 3 mps 753 mmHg 66%
    19:00 +11°C° 0 mm 3 mps 752 mmHg 67%
    20:00 +11°C° 0 mm 3 mps 752 mmHg 68%
    21:00 +10°C° 0 mm 3 mps 752 mmHg 69%
    22:00 +10°C° 0 mm 3 mps 751 mmHg 69%
    23:00 +10°C° 0 mm 3 mps 751 mmHg 70%

    27 October, Friday

    Time Temperature Precipitation Wind Pressure Humidity
    00:00 +10°C° 0.1 mm 3 mps 751 mmHg 73%
    01:00 +10°C° 0.1 mm 3 mps 750 mmHg 75%
    02:00 +10°C° 0.1 mm 3 mps 750 mmHg 78%
    03:00 +10°C° 0.1 mm 2 mps 750 mmHg 80%
    04:00 +10°C° 0.1 mm 2 mps 749 mmHg 83%
    05:00 +10°C° 0.1 mm 2 mps 749 mmHg 85%
    06:00 +10°C° 0.3 mm 2 mps 748 mmHg 85%
    07:00 +10°C° 0.3 mm 3 mps 748 mmHg 85%
    08:00 +10°C° 0.3 mm 3 mps 747 mmHg 86%
    09:00 +11°C° 0.1 mm 3 mps 747 mmHg 81%
    10:00 +12°C° 0.1 mm 3 mps 746 mmHg 76%
    11:00 +13°C° 0.1 mm 3 mps 746 mmHg 71%
    12:00 +13°C° 0.2 mm 3 mps 745 mmHg 70%
    13:00 +14°C° 0.2 mm 3 mps 744 mmHg 69%
    14:00 +14°C° 0.2 mm 3 mps 743 mmHg 67%
    15:00 +15°C° 0 mm 2 mps 743 mmHg 67%
    16:00 +15°C° 0 mm 2 mps 742 mmHg 68%
    17:00 +14°C° 0 mm 2 mps 741 mmHg 68%
    18:00 +14°C° 0.1 mm 2 mps 741 mmHg 70%
    19:00 +13°C° 0.1 mm 2 mps 741 mmHg 72%
    20:00 +13°C° 0.1 mm 2 mps 740 mmHg 74%
    21:00 +13°C° 0.1 mm 2 mps 740 mmHg 77%
    22:00 +11°C° 0.1 mm 3 mps 740 mmHg 79%
    23:00 +11°C° 0.1 mm 3 mps 740 mmHg 82%

    28 October, Saturday

    Time Temperature Precipitation Wind Pressure Humidity
    00:00 +10°C° 0.4 mm 4 mps 740 mmHg 83%
    01:00 +9°C° 0.4 mm 5 mps 740 mmHg 84%
    02:00 +8°C° 0.4 mm 5 mps 740 mmHg 85%
    03:00 +8°C° 0.4 mm 5 mps 740 mmHg 85%
    04:00 +8°C° 0.4 mm 5 mps 740 mmHg 85%
    05:00 +7°C° 0.4 mm 4 mps 740 mmHg 85%
    06:00 +7°C° 0 mm 4 mps 740 mmHg 85%
    07:00 +7°C° 0 mm 4 mps 741 mmHg 84%
    08:00 +7°C° 0 mm 4 mps 741 mmHg 84%
    09:00 +8°C° 0 mm 5 mps 741 mmHg 78%
    10:00 +9°C° 0 mm 5 mps 741 mmHg 72%
    11:00 +10°C° 0 mm 5 mps 741 mmHg 65%
    12:00 +12°C° 0 mm 5 mps 741 mmHg 64%
    13:00 +12°C° 0 mm 5 mps 741 mmHg 62%
    14:00 +12°C° 0 mm 5 mps 740 mmHg 60%
    15:00 +12°C° 0 mm 4 mps 741 mmHg 62%
    16:00 +11°C° 0 mm 3 mps 741 mmHg 63%
    17:00 +10°C° 0 mm 2 mps 741 mmHg 65%
    18:00 +10°C° 0 mm 2 mps 741 mmHg 66%
    19:00 +10°C° 0 mm 1 mps 741 mmHg 68%
    20:00 +10°C° 0 mm 1 mps 742 mmHg 69%
    21:00 +10°C° 0.1 mm 1 mps 742 mmHg 70%
    22:00 +10°C° 0.1 mm 1 mps 742 mmHg 72%
    23:00 +10°C° 0.1 mm 1 mps 742 mmHg 73%

    29 October, Sunday

    Time Temperature Precipitation Wind Pressure Humidity
    00:00 +9°C° 0.2 mm 1 mps 742 mmHg 75%
    01:00 +9°C° 0.2 mm 1 mps 742 mmHg 77%
    02:00 +9°C° 0.2 mm 1 mps 742 mmHg 79%
    03:00 +9°C° 0 mm 1 mps 742 mmHg 80%
    04:00 +8°C° 0 mm 1 mps 742 mmHg 81%
    05:00 +8°C° 0 mm 1 mps 742 mmHg 83%
    06:00 +8°C° 0 mm 1 mps 743 mmHg 82%
    07:00 +8°C° 0 mm 1 mps 743 mmHg 81%
    08:00 +7°C° 0 mm 0 mps 743 mmHg 80%
    09:00 +10°C° 0 mm 1 mps 744 mmHg 74%
    10:00 +10°C° 0 mm 2 mps 744 mmHg 68%
    11:00 +12°C° 0 mm 2 mps 744 mmHg 62%
    12:00 +12°C° 0 mm 3 mps 744 mmHg 59%
    13:00 +12°C° 0 mm 3 mps 743 mmHg 57%
    14:00 +13°C° 0 mm 3 mps 743 mmHg 54%
    15:00 +12°C° 0 mm 3 mps 743 mmHg 58%
    16:00 +11°C° 0 mm 3 mps 743 mmHg 63%
    17:00 +10°C° 0 mm 2 mps 743 mmHg 67%
    18:00 +9°C° 0 mm 3 mps 743 mmHg 71%
    19:00 +9°C° 0 mm 3 mps 744 mmHg 75%
    20:00 +8°C° 0 mm 3 mps 744 mmHg 79%
    21:00 +7°C° 0 mm 3 mps 744 mmHg 81%
    22:00 +7°C° 0 mm 2 mps 744 mmHg 83%
    23:00 +7°C° 0 mm 2 mps 743 mmHg 85%
    Show more